Location: Notre Dame Regional High School Observatory
(37.3056°N, 89.6097°W)
Time: 00:18:31
(UTC-05:00)

Okean-O - Visible Passes

Search period start: 20 April 2018 00:00
Search period end: 30 April 2018 00:00
Orbit: 639 x 641 km, 98.2° (Epoch: 19 April)

Date Brightness Start Highest point End Pass type
(mag) Time Alt. Az. Time Alt. Az. Time Alt. Az.
20 Apr 5.6 05:15:54 10° ENE 05:18:15 14° E 05:20:35 10° SE visible
21 Apr 5.1 05:38:13 10° NE 05:41:54 25° E 05:45:34 10° SSE visible
24 Apr 5.7 05:13:40 10° ENE 05:15:42 13° E 05:17:44 10° ESE visible
25 Apr 5.2 05:35:48 10° NE 05:39:22 23° E 05:42:56 10° SSE visible
28 Apr 5.8 05:11:29 10° ENE 05:13:09 12° E 05:14:49 10° ESE visible
29 Apr 5.3 05:33:23 10° NE 05:36:50 22° E 05:40:15 10° SE visible
